Location: *
(50.3440°N, 18.6237°E)
Time: 16:23:22
(UTC+00:00)

Cosmos 2366 rocket - Pass Details

Date: 30 November 2020
Orbit: 955 x 997 km, 82.9° (Epoch: 17 January)

Event Time Altitude Azimuth Distance (km) Brightness Sun altitude
Rises 16:02:50 0° 351° (N) 3,674 6.9 -11.8°
Reaches altitude 10° 16:05:23 10° 354° (N) 2,717 6.2 -12.2°
Maximum altitude 16:11:34 69° 78° (ENE) 1,028 3.9 -13.1°
Drops below altitude 10° 16:17:41 10° 161° (SSE) 2,680 6.3 -14.0°
Sets 16:20:11 0° 164° (SSE) 3,620 7.0 -14.4°
